Language: 


Des rapports , des résumés tant et plus, au choix de chacun....


Données statistiques de la station
Quotidien Rapport Juin 27, 2017 Unités:  Métrique    Anglais   les deux
« Précédent Jour
Suivant Jour »
Quotidien Hebdomadaire Mensuel Annuel Actuel
  Haut: Bas: Moyen:
Température: 28.2 °C 13.3 °C 19.3 °C
Pt de rosée: 17.0 °C 9.0 °C 14.1 °C
Humidité: 88 % 43 % 72 %
Vitesse du vent: 19.5 km/h 0.0 km/h 6.1 km/h
Rafales: 19.5 km/h - -
Vent:- - East
Pression: 1014.1 hPa 998.9 hPa -
Précipitation: 0.0 mm    
Historical Graphs
 
 
Données statistiques pour Juin 27, 2017
Heure Température Point de rosée Pression Vent Vitesse du vent Refales Humidité Pluie (taux horaire)
00:01 15.2 °C 10.0 °C 1013.1 hPa NE 9.0 km/h 13.0 km/h 69 % 0.0 mm
00:06 15.2 °C 10.0 °C 1013.1 hPa NNE 7.6 km/h 13.0 km/h 69 % 0.0 mm
00:11 15.1 °C 9.0 °C 1013.1 hPa NE 11.9 km/h 12.2 km/h 69 % 0.0 mm
00:16 15.1 °C 10.0 °C 1014.1 hPa North 6.9 km/h 13.0 km/h 70 % 0.0 mm
00:21 15.0 °C 10.0 °C 1014.1 hPa North 8.7 km/h 13.0 km/h 70 % 0.0 mm
00:26 15.0 °C 10.0 °C 1014.1 hPa NE 11.6 km/h 11.6 km/h 70 % 0.0 mm
00:31 14.9 °C 10.0 °C 1013.1 hPa NE 6.4 km/h 11.9 km/h 70 % 0.0 mm
00:36 14.9 °C 10.0 °C 1013.1 hPa NE 8.7 km/h 11.9 km/h 71 % 0.0 mm
00:41 14.7 °C 9.0 °C 1013.1 hPa NNE 6.4 km/h 10.8 km/h 70 % 0.0 mm
00:46 14.5 °C 10.0 °C 1013.1 hPa North 9.0 km/h 9.7 km/h 71 % 0.0 mm
00:51 14.4 °C 10.0 °C 1013.1 hPa NE 6.9 km/h 9.7 km/h 72 % 0.0 mm
00:56 14.3 °C 10.0 °C 1013.1 hPa ENE 10.1 km/h 10.5 km/h 72 % 0.0 mm
01:01 14.3 °C 10.0 °C 1013.1 hPa NE 6.9 km/h 11.9 km/h 73 % 0.0 mm
01:06 14.3 °C 10.0 °C 1013.1 hPa NE 9.3 km/h 11.9 km/h 73 % 0.0 mm
01:11 14.2 °C 10.0 °C 1013.1 hPa NE 9.7 km/h 11.6 km/h 73 % 0.0 mm
01:16 14.2 °C 10.0 °C 1013.1 hPa North 10.1 km/h 10.5 km/h 74 % 0.0 mm
01:21 14.2 °C 10.0 °C 1013.1 hPa NE 4.7 km/h 12.2 km/h 74 % 0.0 mm
01:26 14.2 °C 10.0 °C 1013.1 hPa NE 6.1 km/h 13.7 km/h 74 % 0.0 mm
01:31 14.3 °C 10.0 °C 1012.1 hPa ENE 10.5 km/h 13.7 km/h 74 % 0.0 mm
01:36 14.4 °C 10.0 °C 1012.1 hPa NE 6.4 km/h 14.0 km/h 74 % 0.0 mm
01:41 14.4 °C 10.0 °C 1012.1 hPa NE 8.7 km/h 14.8 km/h 75 % 0.0 mm
01:46 14.3 °C 10.0 °C 1012.1 hPa NE 15.8 km/h 15.8 km/h 75 % 0.0 mm
01:51 14.4 °C 10.0 °C 1012.1 hPa NE 10.1 km/h 15.8 km/h 76 % 0.0 mm
01:53 14.4 °C 10.0 °C 1012.1 hPa NE 9.3 km/h 15.8 km/h 76 % 0.0 mm
01:58 14.4 °C 11.0 °C 1012.1 hPa ENE 9.7 km/h 14.8 km/h 77 % 0.0 mm
02:03 14.3 °C 10.0 °C 1011.1 hPa NE 9.0 km/h 13.7 km/h 76 % 0.0 mm
02:08 14.3 °C 11.0 °C 1011.1 hPa NE 7.2 km/h 13.7 km/h 77 % 0.0 mm
02:13 14.3 °C 11.0 °C 1011.1 hPa NNE 7.9 km/h 13.7 km/h 77 % 0.0 mm
02:18 14.3 °C 11.0 °C 1012.1 hPa NE 9.0 km/h 11.9 km/h 77 % 0.0 mm
02:23 14.3 °C 11.0 °C 1012.1 hPa ENE 7.9 km/h 9.7 km/h 77 % 0.0 mm
02:28 14.3 °C 11.0 °C 1012.1 hPa ENE 10.5 km/h 13.7 km/h 78 % 0.0 mm
02:33 14.4 °C 11.0 °C 1011.1 hPa ENE 4.3 km/h 13.7 km/h 78 % 0.0 mm
02:38 14.4 °C 11.0 °C 1011.1 hPa NE 6.9 km/h 11.1 km/h 78 % 0.0 mm
02:43 14.4 °C 11.0 °C 1011.1 hPa ENE 5.5 km/h 10.8 km/h 79 % 0.0 mm
02:48 14.4 °C 11.0 °C 1011.1 hPa ENE 7.6 km/h 13.7 km/h 79 % 0.0 mm
02:53 14.4 °C 11.0 °C 1011.1 hPa NE 7.9 km/h 13.7 km/h 80 % 0.0 mm
02:58 14.4 °C 11.0 °C 1011.1 hPa NE 6.4 km/h 14.0 km/h 79 % 0.0 mm
03:03 14.4 °C 11.0 °C 1011.1 hPa NE 7.9 km/h 14.0 km/h 80 % 0.0 mm
03:08 14.4 °C 11.0 °C 1011.1 hPa NE 8.7 km/h 11.9 km/h 80 % 0.0 mm
03:13 14.4 °C 11.0 °C 1011.1 hPa NNE 4.0 km/h 11.9 km/h 79 % 0.0 mm
03:19 14.3 °C 11.0 °C 1011.1 hPa Calm   12.6 km/h 80 % 0.0 mm
03:24 14.2 °C 11.0 °C 1011.1 hPa ENE 6.9 km/h 12.6 km/h 80 % 0.0 mm
03:29 14.0 °C 11.0 °C 1011.1 hPa Calm   7.6 km/h 80 % 0.0 mm
03:34 13.8 °C 11.0 °C 1010.0 hPa Calm   7.6 km/h 81 % 0.0 mm
03:39 13.8 °C 11.0 °C 1010.0 hPa Calm   8.7 km/h 81 % 0.0 mm
03:44 13.6 °C 11.0 °C 1010.0 hPa NE 6.9 km/h 8.7 km/h 81 % 0.0 mm
03:49 13.7 °C 11.0 °C 1011.1 hPa Calm   9.0 km/h 82 % 0.0 mm
03:52 13.6 °C 11.0 °C 1011.1 hPa Calm   9.0 km/h 82 % 0.0 mm
03:57 13.6 °C 11.0 °C 1011.1 hPa Calm   6.1 km/h 83 % 0.0 mm
04:02 13.5 °C 11.0 °C 1011.1 hPa NE 6.4 km/h 7.9 km/h 83 % 0.0 mm
04:07 13.6 °C 11.0 °C 1011.1 hPa Calm   7.9 km/h 83 % 0.0 mm
04:12 13.5 °C 11.0 °C 1011.1 hPa Calm   7.6 km/h 83 % 0.0 mm
04:17 13.4 °C 11.0 °C 1011.1 hPa Calm   5.0 km/h 83 % 0.0 mm
04:22 13.4 °C 11.0 °C 1011.1 hPa Calm   5.0 km/h 83 % 0.0 mm
04:27 13.4 °C 11.0 °C 1011.1 hPa Calm   5.0 km/h 84 % 0.0 mm
04:32 13.3 °C 11.0 °C 1010.0 hPa Calm   5.0 km/h 84 % 0.0 mm
04:37 13.4 °C 11.0 °C 1010.0 hPa North 2.6 km/h 10.1 km/h 84 % 0.0 mm
04:43 13.4 °C 11.0 °C 1010.0 hPa Calm   10.1 km/h 85 % 0.0 mm
04:48 13.4 °C 11.0 °C 1010.0 hPa Calm   9.3 km/h 85 % 0.0 mm
04:53 13.5 °C 12.0 °C 1010.0 hPa ENE 3.5 km/h 10.1 km/h 86 % 0.0 mm
04:58 13.7 °C 12.0 °C 1010.0 hPa ENE 11.6 km/h 11.6 km/h 86 % 0.0 mm
05:03 13.8 °C 12.0 °C 1009.0 hPa NE 9.0 km/h 11.9 km/h 86 % 0.0 mm
05:05 13.8 °C 12.0 °C 1009.0 hPa NE 9.7 km/h 12.2 km/h 85 % 0.0 mm
05:10 14.0 °C 12.0 °C 1009.0 hPa NE 10.1 km/h 12.6 km/h 85 % 0.0 mm
05:15 14.0 °C 12.0 °C 1009.0 hPa NE 10.5 km/h 12.6 km/h 85 % 0.0 mm
05:20 14.0 °C 12.0 °C 1010.0 hPa NE 6.1 km/h 10.5 km/h 85 % 0.0 mm
05:25 13.9 °C 12.0 °C 1010.0 hPa NE 6.4 km/h 10.5 km/h 85 % 0.0 mm
05:31 13.8 °C 11.0 °C 1010.0 hPa NE 1.8 km/h 7.9 km/h 84 % 0.0 mm
05:36 13.7 °C 11.0 °C 1009.0 hPa North 7.6 km/h 9.3 km/h 84 % 0.0 mm
05:41 13.6 °C 12.0 °C 1009.0 hPa NE 7.9 km/h 9.3 km/h 85 % 0.0 mm
05:46 13.6 °C 12.0 °C 1009.0 hPa NNE 5.8 km/h 9.0 km/h 85 % 0.0 mm
05:51 13.5 °C 12.0 °C 1009.0 hPa Calm   9.0 km/h 85 % 0.0 mm
05:56 13.5 °C 12.0 °C 1009.0 hPa NNE 9.0 km/h 9.3 km/h 85 % 0.0 mm
06:01 13.5 °C 12.0 °C 1008.0 hPa NNE 6.4 km/h 10.5 km/h 86 % 0.0 mm
06:06 13.5 °C 12.0 °C 1008.0 hPa NNE 5.0 km/h 10.5 km/h 86 % 0.0 mm
06:11 13.5 °C 12.0 °C 1008.0 hPa North 6.9 km/h 10.1 km/h 86 % 0.0 mm
06:16 13.5 °C 12.0 °C 1009.0 hPa NE 8.7 km/h 9.3 km/h 86 % 0.0 mm
06:21 13.6 °C 12.0 °C 1009.0 hPa Calm   9.0 km/h 86 % 0.0 mm
06:23 13.7 °C 12.0 °C 1009.0 hPa ENE 7.6 km/h 9.0 km/h 86 % 0.0 mm
06:28 13.7 °C 12.0 °C 1009.0 hPa NE 5.8 km/h 9.0 km/h 86 % 0.0 mm
06:33 13.8 °C 12.0 °C 1009.0 hPa NNE 2.1 km/h 10.5 km/h 86 % 0.0 mm
06:38 13.9 °C 12.0 °C 1009.0 hPa ENE 2.6 km/h 10.5 km/h 86 % 0.0 mm
06:43 14.0 °C 12.0 °C 1009.0 hPa Calm   7.9 km/h 85 % 0.0 mm
06:48 14.1 °C 12.0 °C 1008.0 hPa Calm   7.9 km/h 84 % 0.0 mm
06:53 14.1 °C 12.0 °C 1008.0 hPa Calm   6.1 km/h 84 % 0.0 mm
06:58 14.2 °C 12.0 °C 1008.0 hPa Calm   6.1 km/h 84 % 0.0 mm
07:03 14.3 °C 12.0 °C 1009.0 hPa NE 8.7 km/h 8.7 km/h 84 % 0.0 mm
07:08 14.5 °C 12.0 °C 1009.0 hPa Calm   8.7 km/h 84 % 0.0 mm
07:09 14.6 °C 12.0 °C 1009.0 hPa ENE 1.8 km/h 8.7 km/h 84 % 0.0 mm
07:14 14.7 °C 12.0 °C 1009.0 hPa Calm   7.9 km/h 84 % 0.0 mm
07:19 14.9 °C 12.0 °C 1009.0 hPa Calm   7.9 km/h 83 % 0.0 mm
07:24 14.9 °C 12.0 °C 1009.0 hPa NE 7.6 km/h 9.3 km/h 83 % 0.0 mm
07:29 15.0 °C 12.0 °C 1009.0 hPa NE 8.7 km/h 9.3 km/h 81 % 0.0 mm
07:34 15.2 °C 12.0 °C 1009.0 hPa ENE 1.4 km/h 9.3 km/h 81 % 0.0 mm
07:39 15.4 °C 12.0 °C 1009.0 hPa ENE 4.3 km/h 9.3 km/h 81 % 0.0 mm
07:44 15.7 °C 13.0 °C 1009.0 hPa Calm   9.3 km/h 80 % 0.0 mm
07:49 15.9 °C 13.0 °C 1009.0 hPa East 11.6 km/h 11.6 km/h 79 % 0.0 mm
07:54 16.1 °C 12.0 °C 1009.0 hPa ENE 8.7 km/h 11.6 km/h 78 % 0.0 mm
07:59 16.2 °C 13.0 °C 1009.0 hPa ENE 4.7 km/h 11.6 km/h 77 % 0.0 mm
08:04 16.3 °C 13.0 °C 1010.0 hPa NE 6.4 km/h 9.3 km/h 77 % 0.0 mm
08:09 16.4 °C 12.0 °C 1010.0 hPa NE 6.4 km/h 8.7 km/h 76 % 0.0 mm
08:14 16.4 °C 12.0 °C 1010.0 hPa East 4.3 km/h 8.7 km/h 76 % 0.0 mm
08:19 16.5 °C 13.0 °C 1009.0 hPa Calm   8.7 km/h 75 % 0.0 mm
08:24 16.6 °C 13.0 °C 1009.0 hPa East 6.9 km/h 8.7 km/h 75 % 0.0 mm
08:29 16.7 °C 13.0 °C 1009.0 hPa ESE 1.4 km/h 9.7 km/h 75 % 0.0 mm
08:34 16.9 °C 13.0 °C 1009.0 hPa Calm   9.7 km/h 74 % 0.0 mm
08:39 17.1 °C 13.0 °C 1009.0 hPa East 5.5 km/h 8.7 km/h 74 % 0.0 mm
08:44 17.2 °C 13.0 °C 1009.0 hPa East 9.0 km/h 9.0 km/h 73 % 0.0 mm
08:50 17.4 °C 13.0 °C 1009.0 hPa ESE 7.9 km/h 10.8 km/h 73 % 0.0 mm
08:55 17.8 °C 13.0 °C 1009.0 hPa East 1.4 km/h 10.8 km/h 72 % 0.0 mm
09:00 18.0 °C 13.0 °C 1009.0 hPa Calm   10.1 km/h 70 % 0.0 mm
09:05 18.7 °C 13.0 °C 1009.0 hPa East 5.0 km/h 10.1 km/h 71 % 0.0 mm
09:10 18.9 °C 13.0 °C 1009.0 hPa East 7.9 km/h 9.3 km/h 69 % 0.0 mm
09:15 18.9 °C 13.0 °C 1009.0 hPa East 2.6 km/h 10.5 km/h 69 % 0.0 mm
09:21 18.8 °C 13.0 °C 1009.0 hPa Calm   10.5 km/h 67 % 0.0 mm
09:26 18.9 °C 13.0 °C 1009.0 hPa ESE 7.6 km/h 12.6 km/h 67 % 0.0 mm
09:31 19.0 °C 13.0 °C 1008.0 hPa ENE 1.8 km/h 12.6 km/h 67 % 0.0 mm
09:36 19.0 °C 13.0 °C 1008.0 hPa ENE 9.3 km/h 9.3 km/h 67 % 0.0 mm
09:41 19.0 °C 13.0 °C 1008.0 hPa ESE 6.9 km/h 11.9 km/h 67 % 0.0 mm
09:46 19.1 °C 13.0 °C 1008.0 hPa ENE 6.9 km/h 12.2 km/h 67 % 0.0 mm
09:51 19.2 °C 13.0 °C 1008.0 hPa ESE 6.4 km/h 12.2 km/h 67 % 0.0 mm
09:56 19.4 °C 13.0 °C 1008.0 hPa East 6.4 km/h 10.1 km/h 67 % 0.0 mm
10:01 19.4 °C 13.0 °C 1008.0 hPa Calm   9.7 km/h 67 % 0.0 mm
10:06 19.9 °C 13.0 °C 1008.0 hPa NE 2.6 km/h 12.6 km/h 66 % 0.0 mm
10:11 20.2 °C 14.0 °C 1008.0 hPa ENE 6.1 km/h 12.6 km/h 66 % 0.0 mm
10:16 20.4 °C 14.0 °C 1008.0 hPa ESE 8.7 km/h 10.5 km/h 66 % 0.0 mm
10:21 20.5 °C 14.0 °C 1008.0 hPa ENE 6.4 km/h 13.0 km/h 65 % 0.0 mm
10:26 20.6 °C 14.0 °C 1008.0 hPa East 5.8 km/h 13.0 km/h 65 % 0.0 mm
10:32 20.6 °C 14.0 °C 1007.0 hPa Calm   11.6 km/h 65 % 0.0 mm
10:42 20.6 °C 14.0 °C 1007.0 hPa Calm   11.6 km/h 65 % 0.0 mm
10:47 20.6 °C 14.0 °C 1007.0 hPa ESE 2.1 km/h 11.6 km/h 65 % 0.0 mm
10:52 20.6 °C 14.0 °C 1007.0 hPa Calm   11.9 km/h 65 % 0.0 mm
10:57 20.6 °C 14.0 °C 1007.0 hPa East 1.8 km/h 11.9 km/h 65 % 0.0 mm
11:02 20.6 °C 14.0 °C 1007.0 hPa ESE 4.7 km/h 10.8 km/h 65 % 0.0 mm
11:07 21.5 °C 14.0 °C 1007.0 hPa Calm   6.1 km/h 62 % 0.0 mm
11:12 21.5 °C 14.0 °C 1007.0 hPa ENE 6.1 km/h 9.0 km/h 62 % 0.0 mm
11:17 21.5 °C 14.0 °C 1007.0 hPa NE 3.5 km/h 9.0 km/h 62 % 0.0 mm
11:22 21.5 °C 14.0 °C 1007.0 hPa East 1.4 km/h 8.7 km/h 62 % 0.0 mm
11:27 21.5 °C 14.0 °C 1007.0 hPa Calm   8.7 km/h 62 % 0.0 mm
11:32 21.5 °C 14.0 °C 1007.0 hPa Calm   7.6 km/h 62 % 0.0 mm
11:37 21.5 °C 14.0 °C 1007.0 hPa Calm   10.1 km/h 62 % 0.0 mm
11:42 21.5 °C 14.0 °C 1007.0 hPa ENE 5.0 km/h 10.1 km/h 62 % 0.0 mm
11:47 21.5 °C 14.0 °C 1007.0 hPa NE 12.2 km/h 12.2 km/h 62 % 0.0 mm
11:52 21.5 °C 14.0 °C 1007.0 hPa ENE 7.6 km/h 12.2 km/h 62 % 0.0 mm
11:57 21.5 °C 14.0 °C 1007.0 hPa ESE 9.3 km/h 10.1 km/h 62 % 0.0 mm
12:02 21.5 °C 14.0 °C 1007.0 hPa East 5.5 km/h 10.1 km/h 62 % 0.0 mm
12:07 24.2 °C 16.0 °C 1007.0 hPa ENE 7.9 km/h 10.5 km/h 58 % 0.0 mm
12:12 24.2 °C 16.0 °C 1007.0 hPa Calm   10.5 km/h 58 % 0.0 mm
12:17 24.2 °C 16.0 °C 1007.0 hPa NE 9.7 km/h 10.5 km/h 58 % 0.0 mm
12:22 24.2 °C 16.0 °C 1007.0 hPa East 6.1 km/h 11.9 km/h 58 % 0.0 mm
12:27 24.2 °C 16.0 °C 1007.0 hPa East 1.4 km/h 11.9 km/h 58 % 0.0 mm
12:33 24.2 °C 16.0 °C 1007.0 hPa ENE 5.0 km/h 11.6 km/h 58 % 0.0 mm
12:38 24.2 °C 16.0 °C 1007.0 hPa East 4.3 km/h 13.0 km/h 58 % 0.0 mm
12:43 24.2 °C 16.0 °C 1007.0 hPa East 9.0 km/h 14.0 km/h 58 % 0.0 mm
12:48 26.0 °C 14.0 °C 1007.0 hPa SE 8.7 km/h 14.0 km/h 48 % 0.0 mm
12:53 26.7 °C 16.0 °C 1007.0 hPa NE 5.8 km/h 14.0 km/h 50 % 0.0 mm
12:58 26.8 °C 15.0 °C 1007.0 hPa East 5.8 km/h 13.0 km/h 48 % 0.0 mm
13:03 27.1 °C 15.0 °C 1006.0 hPa ESE 12.6 km/h 12.6 km/h 48 % 0.0 mm
13:08 27.1 °C 15.0 °C 1006.0 hPa East 6.1 km/h 13.0 km/h 48 % 0.0 mm
13:13 27.1 °C 15.0 °C 1006.0 hPa NE 10.5 km/h 13.0 km/h 48 % 0.0 mm
13:18 27.1 °C 15.0 °C 1006.0 hPa NE 6.4 km/h 13.0 km/h 48 % 0.0 mm
13:23 28.0 °C 16.0 °C 1006.0 hPa Calm   14.0 km/h 46 % 0.0 mm
13:24 28.2 °C 16.0 °C 1006.0 hPa East 6.1 km/h 14.0 km/h 45 % 0.0 mm
13:29 28.1 °C 15.0 °C 1006.0 hPa North 10.5 km/h 15.4 km/h 44 % 0.0 mm
13:34 28.2 °C 15.0 °C 1005.0 hPa SE 11.9 km/h 15.4 km/h 43 % 0.0 mm
13:39 28.2 °C 15.0 °C 1005.0 hPa East 9.0 km/h 15.1 km/h 44 % 0.0 mm
13:44 28.2 °C 15.0 °C 1005.0 hPa East 10.5 km/h 14.0 km/h 44 % 0.0 mm
13:50 27.0 °C 15.0 °C 1006.0 hPa SE 14.8 km/h 14.8 km/h 46 % 0.0 mm
13:55 26.5 °C 15.0 °C 1006.0 hPa SE 5.0 km/h 16.9 km/h 47 % 0.0 mm
14:00 26.2 °C 15.0 °C 1006.0 hPa ENE 13.7 km/h 16.9 km/h 48 % 0.0 mm
14:05 26.0 °C 15.0 °C 1005.0 hPa SSE 13.7 km/h 14.8 km/h 50 % 0.0 mm
14:10 25.8 °C 15.0 °C 1005.0 hPa South 3.2 km/h 17.2 km/h 50 % 0.0 mm
14:15 25.6 °C 15.0 °C 1005.0 hPa East 10.8 km/h 17.2 km/h 51 % 0.0 mm
14:20 25.2 °C 15.0 °C 1005.0 hPa ESE 10.1 km/h 13.7 km/h 53 % 0.0 mm
14:25 24.9 °C 15.0 °C 1005.0 hPa ESE 10.1 km/h 13.7 km/h 54 % 0.0 mm
14:30 24.7 °C 15.0 °C 1005.0 hPa NE 8.7 km/h 14.0 km/h 55 % 0.0 mm
14:35 24.6 °C 15.0 °C 1005.0 hPa ESE 9.7 km/h 15.4 km/h 56 % 0.0 mm
14:40 24.6 °C 16.0 °C 1005.0 hPa ESE 3.5 km/h 15.4 km/h 58 % 0.0 mm
14:45 24.8 °C 16.0 °C 1005.0 hPa East 10.8 km/h 12.2 km/h 57 % 0.0 mm
14:50 25.4 °C 17.0 °C 1005.0 hPa Calm   11.6 km/h 58 % 0.0 mm
14:55 26.0 °C 17.0 °C 1005.0 hPa Calm   9.7 km/h 57 % 0.0 mm
15:00 26.3 °C 17.0 °C 1005.0 hPa ESE 2.6 km/h 6.9 km/h 56 % 0.0 mm
15:05 26.8 °C 17.0 °C 1005.0 hPa ESE 19.5 km/h 19.5 km/h 55 % 0.0 mm
15:10 26.8 °C 17.0 °C 1005.0 hPa SSE 9.7 km/h 19.5 km/h 55 % 0.0 mm
15:15 26.8 °C 17.0 °C 1005.0 hPa ESE 8.7 km/h 16.3 km/h 54 % 0.0 mm
15:20 26.8 °C 17.0 °C 1005.0 hPa SSE 6.1 km/h 14.0 km/h 54 % 0.0 mm
15:25 26.4 °C 16.0 °C 1005.0 hPa South 9.7 km/h 14.0 km/h 53 % 0.0 mm
15:30 26.0 °C 16.0 °C 1005.0 hPa South 1.4 km/h 13.0 km/h 54 % 0.0 mm
15:35 25.8 °C 16.0 °C 1005.0 hPa SSE 9.0 km/h 13.0 km/h 55 % 0.0 mm
15:40 25.1 °C 16.0 °C 1005.0 hPa ESE 9.7 km/h 13.0 km/h 56 % 0.0 mm
15:45 24.8 °C 16.0 °C 1005.0 hPa SE 9.7 km/h 13.0 km/h 57 % 0.0 mm
15:50 24.5 °C 16.0 °C 1005.0 hPa ESE 6.4 km/h 13.0 km/h 59 % 0.0 mm
15:55 24.4 °C 16.0 °C 1005.0 hPa ESE 13.7 km/h 13.7 km/h 60 % 0.0 mm
16:01 24.2 °C 16.0 °C 1003.9 hPa ENE 4.0 km/h 13.7 km/h 60 % 0.0 mm
16:06 24.1 °C 16.0 °C 1003.9 hPa ESE 6.9 km/h 13.7 km/h 61 % 0.0 mm
16:11 23.9 °C 16.0 °C 1003.9 hPa ENE 2.6 km/h 12.2 km/h 62 % 0.0 mm
16:16 23.5 °C 16.0 °C 1003.9 hPa East 7.9 km/h 11.6 km/h 63 % 0.0 mm
16:21 23.3 °C 16.0 °C 1003.9 hPa NE 7.6 km/h 13.7 km/h 64 % 0.0 mm
16:26 23.1 °C 16.0 °C 1003.9 hPa East 6.1 km/h 13.7 km/h 64 % 0.0 mm
16:31 22.9 °C 16.0 °C 1003.9 hPa East 9.0 km/h 12.2 km/h 65 % 0.0 mm
16:36 22.8 °C 16.0 °C 1003.9 hPa East 9.0 km/h 11.6 km/h 66 % 0.0 mm
16:41 22.7 °C 16.0 °C 1003.9 hPa East 8.7 km/h 9.0 km/h 66 % 0.0 mm
16:46 22.7 °C 16.0 °C 1002.9 hPa NE 10.1 km/h 10.1 km/h 67 % 0.0 mm
16:51 22.6 °C 16.0 °C 1002.9 hPa East 10.5 km/h 11.6 km/h 67 % 0.0 mm
16:56 22.5 °C 17.0 °C 1002.9 hPa East 6.1 km/h 11.6 km/h 68 % 0.0 mm
17:01 22.3 °C 16.0 °C 1003.9 hPa ESE 9.7 km/h 12.2 km/h 69 % 0.0 mm
17:06 22.1 °C 16.0 °C 1003.9 hPa NE 4.0 km/h 14.0 km/h 69 % 0.0 mm
17:11 22.0 °C 16.0 °C 1003.9 hPa East 6.4 km/h 14.0 km/h 69 % 0.0 mm
17:16 21.9 °C 16.0 °C 1002.9 hPa ESE 5.5 km/h 12.6 km/h 70 % 0.0 mm
17:17 22.0 °C 16.0 °C 1002.9 hPa ESE 5.5 km/h 12.6 km/h 70 % 0.0 mm
17:22 22.0 °C 16.0 °C 1002.9 hPa NNE 3.5 km/h 12.2 km/h 70 % 0.0 mm
17:27 21.9 °C 16.0 °C 1002.9 hPa East 5.8 km/h 9.3 km/h 70 % 0.0 mm
17:32 21.9 °C 16.0 °C 1002.9 hPa ENE 7.9 km/h 10.5 km/h 70 % 0.0 mm
17:37 21.9 °C 16.0 °C 1002.9 hPa East 5.0 km/h 10.5 km/h 70 % 0.0 mm
17:42 22.0 °C 16.0 °C 1002.9 hPa ESE 5.8 km/h 9.3 km/h 70 % 0.0 mm
17:48 22.1 °C 16.0 °C 1002.9 hPa ESE 6.1 km/h 9.3 km/h 70 % 0.0 mm
17:53 22.2 °C 17.0 °C 1002.9 hPa East 5.5 km/h 10.5 km/h 70 % 0.0 mm
17:54 22.2 °C 17.0 °C 1002.9 hPa ESE 5.0 km/h 10.5 km/h 70 % 0.0 mm
17:59 22.2 °C 17.0 °C 1002.9 hPa East 9.0 km/h 10.5 km/h 70 % 0.0 mm
18:04 22.0 °C 16.0 °C 1002.9 hPa NE 6.4 km/h 10.5 km/h 70 % 0.0 mm
18:09 21.8 °C 16.0 °C 1002.9 hPa NE 10.1 km/h 13.7 km/h 70 % 0.0 mm
18:14 21.6 °C 16.0 °C 1002.9 hPa ENE 7.2 km/h 13.7 km/h 70 % 0.0 mm
18:19 21.5 °C 16.0 °C 1002.9 hPa East 9.7 km/h 12.2 km/h 70 % 0.0 mm
18:24 21.5 °C 16.0 °C 1002.9 hPa ENE 6.4 km/h 11.9 km/h 71 % 0.0 mm
18:25 21.5 °C 16.0 °C 1002.9 hPa ENE 5.5 km/h 11.9 km/h 71 % 0.0 mm
18:30 21.5 °C 16.0 °C 1002.9 hPa NE 1.8 km/h 11.6 km/h 71 % 0.0 mm
18:35 21.6 °C 16.0 °C 1001.9 hPa ESE 10.1 km/h 11.6 km/h 71 % 0.0 mm
18:40 21.7 °C 16.0 °C 1001.9 hPa NE 5.8 km/h 11.9 km/h 71 % 0.0 mm
18:45 21.8 °C 16.0 °C 1001.9 hPa ENE 12.2 km/h 12.2 km/h 71 % 0.0 mm
18:50 21.8 °C 16.0 °C 1001.9 hPa ENE 10.1 km/h 13.7 km/h 71 % 0.0 mm
18:55 21.7 °C 16.0 °C 1001.9 hPa East 4.0 km/h 13.7 km/h 71 % 0.0 mm
19:00 21.6 °C 16.0 °C 1001.9 hPa ENE 7.9 km/h 11.6 km/h 71 % 0.0 mm
19:05 21.7 °C 17.0 °C 1001.9 hPa ESE 9.3 km/h 10.8 km/h 72 % 0.0 mm
19:10 21.7 °C 16.0 °C 1001.9 hPa East 5.5 km/h 11.9 km/h 71 % 0.0 mm
19:15 21.6 °C 16.0 °C 1001.9 hPa NE 3.2 km/h 11.9 km/h 71 % 0.0 mm
19:20 21.7 °C 17.0 °C 1000.9 hPa East 8.7 km/h 11.6 km/h 72 % 0.0 mm
19:26 21.7 °C 16.0 °C 1000.9 hPa ENE 1.4 km/h 11.6 km/h 71 % 0.0 mm
19:31 21.8 °C 16.0 °C 1000.9 hPa ENE 8.7 km/h 12.6 km/h 71 % 0.0 mm
19:36 21.8 °C 16.0 °C 1000.9 hPa East 5.8 km/h 12.6 km/h 71 % 0.0 mm
19:39 21.8 °C 16.0 °C 1000.9 hPa ENE 9.3 km/h 12.2 km/h 71 % 0.0 mm
19:44 21.7 °C 16.0 °C 1000.9 hPa ESE 9.0 km/h 15.8 km/h 71 % 0.0 mm
19:49 21.6 °C 17.0 °C 1000.9 hPa ENE 14.0 km/h 15.8 km/h 72 % 0.0 mm
19:54 21.5 °C 17.0 °C 1000.9 hPa ENE 14.8 km/h 15.8 km/h 72 % 0.0 mm
19:55 21.5 °C 17.0 °C 1000.9 hPa NE 5.0 km/h 15.8 km/h 72 % 0.0 mm
20:00 21.3 °C 16.0 °C 1000.9 hPa East 9.7 km/h 15.8 km/h 73 % 0.0 mm
20:05 21.2 °C 16.0 °C 1000.9 hPa ESE 11.9 km/h 14.0 km/h 73 % 0.0 mm
20:10 21.1 °C 16.0 °C 1000.9 hPa NE 13.0 km/h 15.8 km/h 74 % 0.0 mm
20:15 21.1 °C 17.0 °C 1000.9 hPa NE 9.0 km/h 14.8 km/h 75 % 0.0 mm
20:20 21.0 °C 17.0 °C 1000.9 hPa East 9.3 km/h 13.0 km/h 75 % 0.0 mm
20:25 21.0 °C 17.0 °C 1000.9 hPa NE 13.7 km/h 13.7 km/h 75 % 0.0 mm
20:31 20.9 °C 17.0 °C 1000.9 hPa East 9.3 km/h 13.7 km/h 76 % 0.0 mm
20:35 20.9 °C 17.0 °C 1000.9 hPa NE 9.7 km/h 13.7 km/h 77 % 0.0 mm
20:41 20.9 °C 17.0 °C 1000.9 hPa East 6.9 km/h 13.0 km/h 77 % 0.0 mm
20:46 20.8 °C 17.0 °C 1000.9 hPa NE 1.4 km/h 13.7 km/h 77 % 0.0 mm
20:51 20.7 °C 17.0 °C 1000.9 hPa ENE 9.0 km/h 14.0 km/h 77 % 0.0 mm
20:56 20.6 °C 17.0 °C 1000.9 hPa East 7.6 km/h 14.0 km/h 77 % 0.0 mm
21:01 20.5 °C 17.0 °C 1000.9 hPa ENE 6.9 km/h 13.0 km/h 78 % 0.0 mm
21:06 20.5 °C 17.0 °C 1000.9 hPa NE 7.9 km/h 10.5 km/h 78 % 0.0 mm
21:11 20.4 °C 16.0 °C 1000.9 hPa NE 9.7 km/h 11.6 km/h 78 % 0.0 mm
21:16 20.4 °C 16.0 °C 1000.9 hPa ENE 7.6 km/h 11.9 km/h 78 % 0.0 mm
21:21 20.3 °C 16.0 °C 1000.9 hPa NNE 10.1 km/h 11.9 km/h 78 % 0.0 mm
21:26 20.3 °C 16.0 °C 1000.9 hPa Calm   10.5 km/h 78 % 0.0 mm
21:31 20.2 °C 17.0 °C 1000.9 hPa NE 10.1 km/h 11.9 km/h 79 % 0.0 mm
21:36 20.2 °C 17.0 °C 1000.9 hPa East 10.1 km/h 11.9 km/h 79 % 0.0 mm
21:41 20.2 °C 17.0 °C 1000.9 hPa ENE 6.4 km/h 10.1 km/h 79 % 0.0 mm
21:46 20.2 °C 17.0 °C 1000.9 hPa NNE 6.9 km/h 11.1 km/h 79 % 0.0 mm
21:51 20.2 °C 17.0 °C 1000.9 hPa NE 6.1 km/h 11.1 km/h 79 % 0.0 mm
21:56 20.1 °C 16.0 °C 1000.9 hPa ESE 9.7 km/h 10.1 km/h 79 % 0.0 mm
22:01 20.1 °C 17.0 °C 1000.9 hPa NNE 8.7 km/h 9.7 km/h 80 % 0.0 mm
22:06 20.1 °C 17.0 °C 1000.9 hPa ENE 9.7 km/h 9.7 km/h 80 % 0.0 mm
22:11 20.1 °C 17.0 °C 1000.9 hPa ENE 4.7 km/h 11.6 km/h 80 % 0.0 mm
22:16 20.0 °C 17.0 °C 1000.9 hPa NE 5.5 km/h 10.8 km/h 80 % 0.0 mm
22:21 20.0 °C 17.0 °C 1000.9 hPa NNE 4.7 km/h 9.3 km/h 80 % 0.0 mm
22:26 20.0 °C 17.0 °C 1000.9 hPa ENE 2.1 km/h 13.0 km/h 80 % 0.0 mm
22:31 20.0 °C 17.0 °C 999.9 hPa ENE 5.5 km/h 11.9 km/h 81 % 0.0 mm
22:36 19.9 °C 17.0 °C 999.9 hPa ESE 6.4 km/h 11.9 km/h 81 % 0.0 mm
22:41 19.8 °C 17.0 °C 999.9 hPa ENE 1.4 km/h 9.0 km/h 82 % 0.0 mm
22:46 19.7 °C 17.0 °C 999.9 hPa NNE 4.3 km/h 10.5 km/h 82 % 0.0 mm
22:52 19.6 °C 17.0 °C 999.9 hPa ENE 3.5 km/h 10.5 km/h 82 % 0.0 mm
22:57 19.6 °C 17.0 °C 999.9 hPa NE 6.1 km/h 11.1 km/h 83 % 0.0 mm
23:02 19.6 °C 17.0 °C 999.9 hPa East 9.7 km/h 11.1 km/h 83 % 0.0 mm
23:07 19.6 °C 17.0 °C 999.9 hPa ENE 4.3 km/h 9.7 km/h 83 % 0.0 mm
23:12 19.6 °C 17.0 °C 999.9 hPa East 1.8 km/h 9.3 km/h 84 % 0.0 mm
23:17 19.6 °C 17.0 °C 998.9 hPa Calm   9.0 km/h 83 % 0.0 mm
23:22 19.5 °C 17.0 °C 998.9 hPa Calm   8.7 km/h 84 % 0.0 mm
23:27 19.5 °C 17.0 °C 998.9 hPa NE 4.3 km/h 8.7 km/h 85 % 0.0 mm
23:32 19.4 °C 17.0 °C 998.9 hPa Calm   6.9 km/h 85 % 0.0 mm
23:37 19.3 °C 17.0 °C 998.9 hPa ENE 1.4 km/h 6.1 km/h 86 % 0.0 mm
23:42 19.2 °C 17.0 °C 998.9 hPa Calm   6.1 km/h 86 % 0.0 mm
23:47 19.2 °C 17.0 °C 998.9 hPa Calm   6.1 km/h 87 % 0.0 mm
23:52 19.1 °C 17.0 °C 998.9 hPa Calm   6.4 km/h 87 % 0.0 mm
23:57 19.1 °C 17.0 °C 998.9 hPa Calm   6.4 km/h 88 % 0.0 mm
Le Gheer Warneton
Courtoisie de Weather Underground - 2.25 mb

Mise a jour : 17-12-17 09:11:12
Généré par Cumulus 1.9.4 (1099)